Regional Weather Roundup
Issued by NWS

Home | Current Version | Previous Version | Graphics & Text | Print | Product List | Glossary On
Versions: 1 2 3 4 5 6 7 8 9 10 11 12 13 14 15 16 17 18 19 20 21 22 23 24 25 26 27 28 29 30 31 32 33 34 35 36 37 38 39 40 41 42 43 44 45 46 47 48 49 50
000
ASUS43 KDMX 050907
RWRIA

WEATHER ROUNDUP FOR IOWA
NATIONAL WEATHER SERVICE DES MOINES IA
300 AM CST THU MAR 05 2015

NOTE: "FAIR" INDICATES FEW OR NO CLOUDS BELOW 12,000 FEET WITH NO
SIGNIFICANT WEATHER AND/OR OBSTRUCTIONS TO VISIBILITY.

* - THESE STATIONS ARE NOT NWS STATIONS...THUS NOT UNDER NWS
QUALITY CONTROL.  THEY ALSO DO NOT REPORT WEATHER SUCH
AS PRECIPITATION OR FOG.

IAZ001>003-012>014-020>022-031>034-043>046-051000-
   NORTHWEST IOWA

CITY           SKY/WX    TMP DP  RH WIND       PRES   REMARKS
CARROLL *      CLEAR     -2  -9  71 NW7       30.46S WCI -16
CHEROKEE *     CLEAR     -6  -9  84 CALM      30.46S
DENISON *      CLEAR     -4  -8  84 CALM      30.45S
LE MARS *      CLEAR     -4  -8  84 CALM      30.48S
ORANGE CITY *  CLEAR      0  -8  71 N3        30.43S
SHELDON *      CLEAR     -8 -13  77 CALM      30.43S
SIOUX CITY     CLEAR     -2  -7  79 W5        30.49S WCI -12
SPENCER        CLEAR     -7 -13  75 NW3       30.44S
STORM LAKE *   CLEAR     -4 -11  71 N7        30.43F WCI -18
$$

IAZ055>058-069>071-079>083-090>094-051000-
   SOUTHWEST IOWA

CITY           SKY/WX    TMP DP  RH WIND       PRES   REMARKS
ATLANTIC *     CLEAR      1  -8  66 NW6       30.47S WCI -10
AUDUBON *      CLEAR     -2  -9  71 CALM      30.45S
CLARINDA *     CLEAR      5  -2  72 N5        30.51S WCI  -4
COUNCIL BLFS * CLEAR      5  -4  66 N5        30.46F WCI  -4
CRESTON *      CLEAR      3  -8  60 N8        30.45S WCI -10
HARLAN  *      CLEAR      0  -6  78 CALM      30.50F
LAMONI         CLEAR      6  -3  66 N8        30.44R WCI  -7
RED OAK *      CLEAR      1  -4  78 N5        30.50S WCI  -8
SHENANDOAH *   CLEAR      5  -2  72 N3        30.51S
$$

IAZ047>049-059>061-072>074-084-051000-
   CENTRAL IOWA

CITY           SKY/WX    TMP DP  RH WIND       PRES   REMARKS
AMES           CLEAR      1  -8  66 N9        30.47S WCI -14
ANKENY *       MOCLDY     3  -6  66 N6G13     30.48S WCI  -8
CHARITON *     FLURRIES   9   1  72 NE13      30.45R WCI  -7
DES MOINES     PTCLDY     6  -4  63 N8        30.48R WCI  -7
GRINNELL*      CLEAR      0  -8  71 NW5       30.45S WCI -10
KNOXVILLE *    CLOUDY     5  -8  56 N6        30.46R WCI  -6
MARSHALLTOWN   CLEAR     -8 -13  78 W3        30.44S
PELLA *        CLOUDY     5   0  78 N7        30.48R WCI  -7
PERRY *          N/A      1  -4  78 CALM      30.47S
$$

IAZ004>006-015-016-023>025-035-036-051000-
   NORTH CENTRAL IOWA

CITY           SKY/WX    TMP DP  RH WIND       PRES   REMARKS
ALGONA *       CLEAR      0 N/A N/A NW6       30.45S WCI -12
CLARION *      CLEAR     -2  -9  71 NW7       30.45S WCI -16
ESTHERVILLE    CLEAR     -6 -11  79 NW9       30.43S WCI -23
FORT DODGE *   CLEAR     -2  -9  71 CALM      30.46S
MASON CITY     CLEAR     -9 -14  78 NW6       30.44S WCI -22
FOREST CITY *  CLEAR     -4 -11  71 NW5       30.42S WCI -15
IOWA FALLS *     N/A     -6 -11  77 NW7       30.44S WCI -20
$$

IAZ007>011-017>019-026>030-037>042-050>054-066-051000-
   NORTHEAST IOWA

CITY           SKY/WX    TMP DP  RH WIND       PRES   REMARKS
CEDAR RAPIDS   CLEAR     -3  -9  75 NW7       30.42F WCI -16
CHARLES CITY * CLEAR     -8 -13  77 NW8       30.42S WCI -23
CLINTON *      PTCLDY    -2  -9  71 W8        30.42F WCI -17
DECORAH *      CLEAR     -4 -11  71 CALM      30.38F
DUBUQUE        CLEAR     -1  -9  68 NW13      30.37R WCI -19
MONTICELLO *   CLEAR     -6 -13  71 W5        30.42S WCI -17
OELWEIN *      CLEAR    -11 -18  70 NW8       30.41F WCI -28
WATERLOO       CLEAR     -4 -10  75 W6        30.44F WCI -16
$$

IAZ064-065-067-068-078-051000-
   EAST CENTRAL IOWA

CITY           SKY/WX    TMP DP  RH WIND       PRES   REMARKS
DAVENPORT      PTCLDY     2  -6  69 NW9       30.42F WCI -13
IOWA CITY      CLEAR      5  -5  63 NW8       30.46S WCI  -8
MT. PLEASANT * PTCLDY     7   1  78 N9        30.44F WCI  -7
MUSCATINE *    CLEAR      7  -2  66 N10       30.47S WCI  -8
QUAD CITIES    PTCLDY     8  -4  58 NW8       30.43S WCI  -4
$$

IAZ062-063-075>077-085>089-095>099-051000-
   SOUTHEAST IOWA

CITY           SKY/WX    TMP DP  RH WIND       PRES   REMARKS
BURLINGTON     MOCLDY    10   2  69 N8        30.43R WCI  -2
FAIRFIELD *    PTCLDY     5  -2  72 N8        30.46R WCI  -8
FORT MADISON * CLEAR     10   3  72 N8        30.44R WCI  -1
KEOKUK *       MOCLDY    12   3  67 N10G17    30.43R WCI  -1
OSKALOOSA *    CLOUDY     7  -2  66 N15       30.46S WCI -11
CENTERVILLE *  FLURRIES  10   9  92 N12       30.43S WCI  -4
OTTUMWA        CLOUDY     7  -3  64 N13       30.46R WCI  -9
WASHINGTON *   CLEAR      7   1  78 N10       30.45S WCI  -8
$$

ABBREVIATIONS USED IN REMARKS
   TC - TEMPERATURES IN CELSIUS
  WCI - WIND CHILL INDEX
   HX - HEAT INDEX
  VSB - VISIBILITY
$$



USA.gov is the U.S. government's official web portal to all federal, state and local government web resources and services.